Voltar ao catálogo

THOR ABLESTAR DEB

AtivoLEO
NORAD 329·DEBRIS·🇺🇸 United States

Lançado Jun 29, 1961 de Cape Canaveral Space Force Station

Loading…

Próximas Passagens (próximas 24 horas)

TLE

AtualizadoSource: Space-Track

Época: Sep 7, 2026, 13:46 UTC

1 00329U 61015DF  26250.57363529 -.00000041  00000-0  35996-4 0  9994
2 00329  66.7807 181.3420 0120197 298.5579 237.5145 13.66145608241266

Acompanhe THOR ABLESTAR DEB em tempo real com AllMySat

Download on the App Store